When you browse on this site, cookies collect data to enhance your experience and personalize the content and advertising you see.
Visit our Privacy Policy to learn more. By continuing to use the site, you agree to this use of cookies and data.
  • In Hungary
  • List of Countries
  • For 7 days
  • Water Temperature
  • Weather Map
  • News
  • Weather Widgets
  • user-avatar
    Login

    Hourly Weather Chernyy Klyuch

    Today, 15 October, Tuesday

    Time Temperature Precipitation Wind Pressure Humidity
    00:00 +5°C° 0 mm 3 mps 748 mmHg 89%
    01:00 +5°C° 0.2 mm 3 mps 748 mmHg 90%
    02:00 +5°C° 0.2 mm 3 mps 747 mmHg 91%
    03:00 +5°C° 0 mm 3 mps 746 mmHg 93%
    04:00 +5°C° 1.3 mm 3 mps 745 mmHg 93%
    05:00 +6°C° 1.3 mm 4 mps 744 mmHg 94%
    06:00 +6°C° 1.3 mm 4 mps 743 mmHg 95%
    07:00 +6°C° 0.2 mm 4 mps 743 mmHg 96%
    08:00 +8°C° 0.2 mm 3 mps 742 mmHg 96%
    09:00 +9°C° 0 mm 3 mps 742 mmHg 99%
    10:00 +9°C° 0 mm 3 mps 742 mmHg 96%
    11:00 +10°C° 0 mm 4 mps 742 mmHg 93%
    12:00 +10°C° 0 mm 4 mps 742 mmHg 91%
    13:00 +10°C° 0.1 mm 4 mps 743 mmHg 90%
    14:00 +8°C° 0.1 mm 4 mps 744 mmHg 89%
    15:00 +7°C° 0.1 mm 5 mps 744 mmHg 88%
    16:00 +7°C° 0 mm 5 mps 745 mmHg 88%
    17:00 +7°C° 0 mm 5 mps 746 mmHg 87%
    18:00 +7°C° 0 mm 5 mps 747 mmHg 86%
    19:00 +6°C° 0 mm 5 mps 747 mmHg 85%
    20:00 +5°C° 0 mm 5 mps 748 mmHg 84%
    21:00 +4°C° 0 mm 6 mps 749 mmHg 83%
    22:00 +3°C° 0 mm 5 mps 749 mmHg 81%
    23:00 +2°C° 0 mm 5 mps 750 mmHg 79%

    Tomorrow, 16 October, Wednesday

    Time Temperature Precipitation Wind Pressure Humidity
    00:00 +1°C° 0 mm 5 mps 750 mmHg 77%
    01:00 +1°C° 0 mm 5 mps 751 mmHg 76%
    02:00 +2°C° 0 mm 5 mps 752 mmHg 74%
    03:00 +2°C° 0 mm 5 mps 753 mmHg 72%
    04:00 +1°C° 0 mm 5 mps 753 mmHg 78%
    05:00 +1°C° 0 mm 5 mps 753 mmHg 84%
    06:00 +1°C° 0 mm 5 mps 754 mmHg 90%
    07:00 +1°C° 0 mm 5 mps 754 mmHg 85%
    08:00 +2°C° 0 mm 6 mps 755 mmHg 80%
    09:00 +2°C° 0 mm 6 mps 756 mmHg 75%
    10:00 +2°C° 0 mm 6 mps 756 mmHg 72%
    11:00 +3°C° 0 mm 6 mps 756 mmHg 70%
    12:00 +3°C° 0 mm 5 mps 757 mmHg 67%
    13:00 +3°C° 0 mm 5 mps 757 mmHg 67%
    14:00 +3°C° 0 mm 5 mps 758 mmHg 68%
    15:00 +3°C° 0 mm 5 mps 758 mmHg 68%
    16:00 +3°C° 0 mm 4 mps 758 mmHg 71%
    17:00 +3°C° 0 mm 3 mps 759 mmHg 75%
    18:00 +2°C° 0 mm 3 mps 759 mmHg 78%
    19:00 +2°C° 0 mm 2 mps 759 mmHg 81%
    20:00 +2°C° 0 mm 2 mps 759 mmHg 84%
    21:00 +2°C° 0 mm 1 mps 760 mmHg 87%
    22:00 +2°C° 0 mm 1 mps 760 mmHg 88%
    23:00 +2°C° 0 mm 1 mps 760 mmHg 88%

    Day after tomorrow, 17 October, Thursday

    Time Temperature Precipitation Wind Pressure Humidity
    00:00 0°C° 0 mm 0 mps 760 mmHg 89%
    01:00 +1°C° 0 mm 1 mps 760 mmHg 90%
    02:00 +1°C° 0 mm 1 mps 760 mmHg 90%
    03:00 +1°C° 0 mm 1 mps 760 mmHg 91%
    04:00 +1°C° 0 mm 2 mps 760 mmHg 90%
    05:00 +1°C° 0 mm 2 mps 760 mmHg 90%
    06:00 +1°C° 0 mm 2 mps 760 mmHg 89%
    07:00 0°C° 0.2 mm 3 mps 760 mmHg 88%
    08:00 +1°C° 0.2 mm 3 mps 759 mmHg 87%
    09:00 0°C° 0.2 mm 4 mps 759 mmHg 86%
    10:00 +1°C° 0 mm 5 mps 758 mmHg 84%
    11:00 +1°C° 0 mm 5 mps 758 mmHg 82%
    12:00 +2°C° 0 mm 6 mps 757 mmHg 80%
    13:00 +2°C° 0 mm 6 mps 756 mmHg 77%
    14:00 +3°C° 0 mm 7 mps 756 mmHg 74%
    15:00 +3°C° 0 mm 7 mps 755 mmHg 71%
    16:00 +3°C° 0 mm 7 mps 754 mmHg 71%
    17:00 +3°C° 0 mm 7 mps 754 mmHg 71%
    18:00 +3°C° 0 mm 7 mps 753 mmHg 71%
    19:00 +3°C° 0 mm 7 mps 753 mmHg 70%
    20:00 +4°C° 0 mm 7 mps 752 mmHg 70%
    21:00 +4°C° 0 mm 7 mps 752 mmHg 69%
    22:00 +4°C° 0 mm 7 mps 751 mmHg 70%
    23:00 +4°C° 0 mm 7 mps 751 mmHg 71%

    18 October, Friday

    Time Temperature Precipitation Wind Pressure Humidity
    00:00 +4°C° 0 mm 6 mps 751 mmHg 72%
    01:00 +4°C° 0.3 mm 6 mps 750 mmHg 76%
    02:00 +4°C° 0.3 mm 6 mps 750 mmHg 80%
    03:00 +5°C° 0.3 mm 5 mps 750 mmHg 83%
    04:00 +5°C° 0.9 mm 5 mps 750 mmHg 87%
    05:00 +5°C° 0.9 mm 5 mps 750 mmHg 90%
    06:00 +5°C° 0.9 mm 4 mps 750 mmHg 93%
    07:00 +5°C° 0.4 mm 4 mps 750 mmHg 95%
    08:00 +7°C° 0.4 mm 3 mps 750 mmHg 96%
    09:00 +7°C° 0.4 mm 2 mps 750 mmHg 97%
    10:00 +5°C° 0.5 mm 3 mps 750 mmHg 95%
    11:00 +5°C° 0.5 mm 4 mps 751 mmHg 93%
    12:00 +3°C° 0.5 mm 5 mps 751 mmHg 91%
    13:00 +3°C° 0.7 mm 5 mps 751 mmHg 89%
    14:00 +3°C° 0.7 mm 5 mps 752 mmHg 88%
    15:00 +2°C° 0.7 mm 5 mps 752 mmHg 86%
    16:00 +2°C° 0.1 mm 5 mps 752 mmHg 84%
    17:00 +2°C° 0.1 mm 5 mps 753 mmHg 83%
    18:00 +2°C° 0.1 mm 5 mps 753 mmHg 81%
    19:00 +2°C° 0 mm 5 mps 754 mmHg 80%
    20:00 +1°C° 0 mm 5 mps 754 mmHg 79%
    21:00 +1°C° 0 mm 5 mps 755 mmHg 79%
    22:00 0°C° 0 mm 5 mps 755 mmHg 79%
    23:00 0°C° 0 mm 5 mps 755 mmHg 80%

    19 October, Saturday

    Time Temperature Precipitation Wind Pressure Humidity
    00:00 -1°C° 0 mm 4 mps 756 mmHg 80%
    01:00 -1°C° 0 mm 4 mps 756 mmHg 81%
    02:00 -1°C° 0 mm 4 mps 756 mmHg 82%
    03:00 -2°C° 0 mm 4 mps 756 mmHg 84%
    04:00 -2°C° 0 mm 4 mps 757 mmHg 85%
    05:00 -2°C° 0 mm 4 mps 757 mmHg 86%
    06:00 -3°C° 0 mm 4 mps 757 mmHg 87%
    07:00 -2°C° 0 mm 4 mps 758 mmHg 82%
    08:00 -1°C° 0 mm 4 mps 758 mmHg 78%
    09:00 0°C° 0 mm 4 mps 758 mmHg 73%
    10:00 +1°C° 0 mm 4 mps 758 mmHg 71%
    11:00 +3°C° 0 mm 4 mps 758 mmHg 69%
    12:00 +4°C° 0 mm 4 mps 758 mmHg 66%
    13:00 +4°C° 0 mm 4 mps 758 mmHg 68%
    14:00 +4°C° 0 mm 3 mps 758 mmHg 70%
    15:00 +4°C° 0 mm 3 mps 758 mmHg 71%
    16:00 +3°C° 0 mm 3 mps 758 mmHg 76%
    17:00 +2°C° 0 mm 3 mps 758 mmHg 80%
    18:00 +1°C° 0 mm 3 mps 758 mmHg 84%
    19:00 +2°C° 0 mm 2 mps 758 mmHg 85%
    20:00 +2°C° 0 mm 2 mps 759 mmHg 86%
    21:00 +2°C° 0 mm 2 mps 759 mmHg 87%
    22:00 +2°C° 0 mm 2 mps 759 mmHg 87%
    23:00 +2°C° 0 mm 2 mps 759 mmHg 87%

    20 October, Sunday

    Time Temperature Precipitation Wind Pressure Humidity
    00:00 +2°C° 0 mm 2 mps 759 mmHg 87%
    01:00 +3°C° 0 mm 2 mps 759 mmHg 87%
    02:00 +3°C° 0 mm 2 mps 759 mmHg 86%
    03:00 +3°C° 0 mm 2 mps 759 mmHg 85%
    04:00 +3°C° 0 mm 2 mps 759 mmHg 86%
    05:00 +4°C° 0 mm 1 mps 759 mmHg 86%
    06:00 +4°C° 0 mm 1 mps 759 mmHg 86%
    07:00 +4°C° 0 mm 1 mps 760 mmHg 84%
    08:00 +5°C° 0 mm 1 mps 760 mmHg 82%
    09:00 +5°C° 0 mm 1 mps 760 mmHg 80%
    10:00 +6°C° 0 mm 1 mps 760 mmHg 76%
    11:00 +7°C° 0 mm 1 mps 761 mmHg 71%
    12:00 +7°C° 0 mm 0 mps 761 mmHg 67%
    13:00 +7°C° 0 mm 0 mps 761 mmHg 67%
    14:00 +7°C° 0 mm 0 mps 761 mmHg 66%
    15:00 +7°C° 0 mm 0 mps 761 mmHg 66%
    16:00 +6°C° 0 mm 0 mps 761 mmHg 71%
    17:00 +5°C° 0 mm 0 mps 761 mmHg 75%
    18:00 +4°C° 0 mm 0 mps 761 mmHg 79%
    19:00 +4°C° 0 mm 0 mps 761 mmHg 81%
    20:00 +4°C° 0 mm 1 mps 762 mmHg 82%
    21:00 +4°C° 0 mm 1 mps 762 mmHg 84%
    22:00 +4°C° 0 mm 1 mps 762 mmHg 85%
    23:00 +4°C° 0 mm 1 mps 762 mmHg 87%
    Show more